Orbital Elements at Epoch 2459200.5 (2020-Dec-17.0) TDB
Reference: JPL 22 (heliocentric ecliptic J2000)
Element | Value | Uncertainty (1-sigma) | Units |
e | .0745634335738754 | 2.9403e-08 | |
a | 2.391736525117584 | 1.0159e-08 | au |
q | 2.213400437600767 | 7.0254e-08 | au |
i | 6.161171024564562 | 4.4057e-06 | deg |
node | 337.7263039113773 | 2.8828e-05 | deg |
peri | 259.3746343598933 | 4.5796e-05 | deg |
M | 37.46644053310694 | 3.3127e-05 | deg |
tp | 2459059.892539301308 (2020-Jul-29.39253930) | 0.00012471 | TDB |
period | 1351.040694853315 3.70 | 8.6082e-06 2.357e-08 | d yr |
n | .2664612556612041 | 1.6978e-09 | deg/d |
Q | 2.570072612634401 | 1.0917e-08 | au |
|
| | Orbit Determination Parameters
Additional Information
|